Weather History for Howell, MI

Change the Weather History Date:

Wednesday, September 25, 2013

  Actual Average Record
Temperature  
Mean Temperature 56 °F -  
Max Temperature 70 °F 68 °F 84 °F (2007)
Min Temperature 42 °F 47 °F 37 °F (2002)
Degree Days  
Heating Degree Days 9    
Growing Degree Days 6 (Base 50)    
Moisture  
Dew Point 47 °F    
Average Humidity 77    
Maximum Humidity 100    
Minimum Humidity 35    
Precipitation  
Precipitation 0.00 in - - ()
Sea Level Pressure  
Sea Level Pressure 30.00 in    
Wind  
Wind Speed 3 mph (ENE)    
Max Wind Speed 9 mph    
Max Gust Speed -    
Visibility 8 miles    
Events Fog    
Averages and records for this station are not official NWS values.
T = Trace of Precipitation, MM = Missing Value Source: NWS Daily Summary

Daily Weather History Graph

Daily Weather History Graph

Search for Another Location

Airport:

Trip Planner

Search our weather history database for the weather conditions in past years. The results will help you decide how hot, cold, wet, or windy it might be!

Date:

Astronomy

Sep. 25, 2013 Rise Set
Actual Time 7:26 AM EDT 7:27 PM EDT
Civil Twilight 6:58 AM EDT 7:55 PM EDT
Nautical Twilight 6:25 AM EDT 8:28 PM EDT
Astronomical Twilight 5:52 AM EDT 9:01 PM EDT
Moon 11:26 PM EDT (9/25) 1:38 PM EDT (9/25)
Length of Visible Light 12h 56m
Length of Day
12h 00m
Waning Gibbous, 64% of the Moon is Illuminated
Sep 25
Waning Gibbous
Sep 26
Last Quarter
Oct 4
New
Oct 11
First Quarter
Oct 18
Full

Hourly Weather History & Observations

Time (EDT) Temp. Windchill Dew Point Humidity Pressure Visibility Wind Dir Wind Speed Gust Speed Precip Events Conditions
12:15 AM 47.5 °F - 45.7 °F 93% 30.02 in 10.0 mi ENE 3.5 mph - N/A   Clear
12:34 AM 47.8 °F - 46.8 °F 96% 30.01 in 10.0 mi ENE 3.5 mph - N/A   Clear
12:55 AM 47.7 °F - 46.8 °F 97% 30.01 in 10.0 mi Calm Calm - N/A   Clear
1:14 AM 48.0 °F - 46.9 °F 96% 30.01 in 10.0 mi East 3.5 mph - N/A   Clear
1:34 AM 48.7 °F - 47.7 °F 96% 30.01 in 10.0 mi East 3.5 mph - N/A   Clear
1:55 AM 48.6 °F - 47.7 °F 97% 30.01 in 10.0 mi Calm Calm - N/A   Clear
2:14 AM 49.1 °F - 48.0 °F 96% 30.01 in 10.0 mi Calm Calm - N/A   Clear
2:34 AM 48.4 °F - 47.7 °F 97% 30.01 in 10.0 mi Calm Calm - N/A   Clear
2:55 AM 48.0 °F - 47.3 °F 97% 30.01 in 7.0 mi NE 4.6 mph - N/A   Clear
3:14 AM 48.2 °F - 47.7 °F 98% 30.00 in 7.0 mi NE 3.5 mph - N/A   Clear
3:34 AM 47.8 °F - 47.5 °F 99% 30.00 in 7.0 mi NE 4.6 mph - N/A   Clear
3:55 AM 47.8 °F - 47.3 °F 98% 30.00 in 7.0 mi ENE 3.5 mph - N/A   Clear
4:14 AM 46.4 °F - 45.9 °F 98% 29.99 in 5.0 mi Calm Calm - N/A   Clear
4:34 AM 46.4 °F - 46.4 °F 100% 29.99 in 7.0 mi Calm Calm - N/A   Clear
4:55 AM 46.6 °F - 46.4 °F 99% 29.99 in 7.0 mi Calm Calm - N/A   Clear
5:14 AM 45.0 °F - 44.8 °F 99% 29.99 in 2.0 mi Calm Calm - N/A   Clear
5:34 AM 44.4 °F 42.9 °F 44.4 °F 100% 30.00 in 4.0 mi NNE 3.5 mph - N/A   Clear
5:55 AM 43.2 °F 41.5 °F 43.0 °F 99% 29.99 in 3.0 mi NE 3.5 mph - N/A   Clear
6:14 AM 43.9 °F - 43.9 °F 100% 29.99 in 3.0 mi Calm Calm - N/A   Clear
6:34 AM 44.8 °F - 44.8 °F 100% 30.00 in 4.0 mi Calm Calm - N/A   Clear
6:55 AM 43.3 °F - 43.3 °F 100% 30.00 in 0.5 mi Calm Calm - N/A Fog Fog
7:14 AM 43.0 °F - 43.0 °F 100% 30.01 in 3.0 mi Calm Calm - N/A   Clear
7:34 AM 42.4 °F - 42.4 °F 100% 30.01 in 2.5 mi Calm Calm - N/A   Clear
7:55 AM 43.7 °F 42.1 °F 43.7 °F 100% 30.01 in 1.2 mi NNE 3.5 mph - N/A   Mist
8:14 AM 45.5 °F - 45.5 °F 100% 30.01 in 0.8 mi Calm Calm - N/A   Overcast
8:35 AM 45.5 °F - 45.5 °F 100% 30.01 in 0.2 mi Calm Calm - N/A Fog Fog
8:55 AM 46.0 °F - 46.0 °F 100% 30.01 in 0.2 mi Calm Calm - N/A Fog Fog
9:14 AM 47.7 °F - 47.7 °F 100% 30.01 in 0.5 mi Calm Calm - N/A Fog Fog
9:35 AM 48.2 °F - 48.2 °F 100% 30.02 in 0.5 mi Calm Calm - N/A Fog Fog
9:55 AM 51.3 °F - 51.3 °F 100% 30.02 in 5.0 mi Calm Calm - N/A   Scattered Clouds
10:14 AM 54.5 °F - 54.5 °F 100% 30.02 in 10.0 mi NE 3.5 mph - N/A   Clear
10:35 AM 57.2 °F - 54.9 °F 92% 30.02 in 10.0 mi ENE 3.5 mph - N/A   Clear
10:55 AM 60.1 °F - 53.1 °F 78% 30.02 in 10.0 mi ENE 4.6 mph - N/A   Clear
11:14 AM 62.2 °F - 51.4 °F 68% 30.01 in 10.0 mi NE 5.8 mph - N/A   Clear
11:35 AM 64.4 °F - 47.8 °F 55% 30.01 in 10.0 mi East 6.9 mph - N/A   Clear
11:54 AM 65.5 °F - 46.0 °F 49% 30.01 in 10.0 mi East 8.1 mph - N/A   Clear
12:14 PM 67.1 °F - 48.2 °F 51% 30.01 in 10.0 mi East 3.5 mph - N/A   Clear
12:35 PM 66.4 °F - 48.4 °F 52% 30.00 in 10.0 mi ENE 8.1 mph - N/A   Clear
12:54 PM 66.4 °F - 49.5 °F 54% 30.00 in 10.0 mi ENE 5.8 mph - N/A   Clear
1:14 PM 66.0 °F - 49.6 °F 55% 30.00 in 10.0 mi ESE 5.8 mph - N/A   Clear
1:35 PM 67.3 °F - 49.8 °F 53% 30.00 in 10.0 mi ENE 3.5 mph - N/A   Clear
1:54 PM 69.1 °F - 49.1 °F 49% 29.99 in 10.0 mi ENE 6.9 mph - N/A   Clear
2:14 PM 69.1 °F - 46.9 °F 45% 29.99 in 10.0 mi East 5.8 mph - N/A   Clear
2:35 PM 69.8 °F - 45.7 °F 42% 29.98 in 10.0 mi ENE 6.9 mph - N/A   Clear
2:54 PM 69.4 °F - 43.9 °F 40% 29.98 in 10.0 mi NE 8.1 mph - N/A   Clear
3:14 PM 70.3 °F - 41.2 °F 35% 29.97 in 10.0 mi East 9.2 mph - N/A   Clear
3:35 PM 70.5 °F - 41.2 °F 35% 29.97 in 10.0 mi NE 6.9 mph - N/A   Clear
3:54 PM 70.2 °F - 41.0 °F 35% 29.97 in 10.0 mi East 6.9 mph - N/A   Clear
4:15 PM 68.5 °F - 41.5 °F 37% 29.97 in 10.0 mi ENE 5.8 mph - N/A   Clear
4:35 PM 69.3 °F - 42.4 °F 38% 29.97 in 10.0 mi East 5.8 mph - N/A   Clear
4:54 PM 68.9 °F - 43.3 °F 40% 29.97 in 10.0 mi East 5.8 mph - N/A   Clear
5:15 PM 68.2 °F - 43.2 °F 40% 29.98 in 10.0 mi East 3.5 mph - N/A   Clear
5:35 PM 68.4 °F - 45.0 °F 43% 29.98 in 10.0 mi ENE 3.5 mph - N/A   Clear
5:54 PM 67.5 °F - 45.7 °F 46% 29.98 in 10.0 mi Calm Calm - N/A   Clear
6:15 PM 66.6 °F - 47.3 °F 50% 29.98 in 10.0 mi Calm Calm - N/A   Clear
6:34 PM 65.8 °F - 47.8 °F 52% 29.98 in 10.0 mi Calm Calm - N/A   Clear
6:54 PM 63.3 °F - 50.9 °F 64% 29.98 in 10.0 mi Calm Calm - N/A   Clear
7:15 PM 63.1 °F - 50.0 °F 62% 29.98 in 10.0 mi Calm Calm - N/A   Clear
7:34 PM 63.7 °F - 47.3 °F 55% 29.98 in 10.0 mi Calm Calm - N/A   Clear
7:54 PM 59.9 °F - 47.7 °F 64% 29.98 in 10.0 mi Calm Calm - N/A   Clear
8:15 PM 59.7 °F - 48.2 °F 66% 29.99 in 10.0 mi Calm Calm - N/A   Clear
8:34 PM 60.4 °F - 49.6 °F 68% 29.99 in 10.0 mi North 3.5 mph - N/A   Clear
8:54 PM 59.4 °F - 50.9 °F 74% 29.99 in 10.0 mi Calm Calm - N/A   Clear
9:15 PM 58.3 °F - 52.2 °F 80% 29.99 in 10.0 mi Calm Calm - N/A   Clear
9:34 PM 56.7 °F - 52.7 °F 87% 29.99 in 10.0 mi Calm Calm - N/A   Clear
9:54 PM 53.8 °F - 51.1 °F 91% 29.99 in 10.0 mi Calm Calm - N/A   Clear
10:15 PM 52.5 °F - 50.2 °F 92% 30.00 in 10.0 mi Calm Calm - N/A   Clear
10:34 PM 52.3 °F - 50.5 °F 94% 30.00 in 10.0 mi Calm Calm - N/A   Clear
10:54 PM 51.8 °F - 50.5 °F 95% 30.00 in 10.0 mi Calm Calm - N/A   Clear
11:15 PM 50.2 °F - 48.6 °F 94% 30.01 in 10.0 mi Calm Calm - N/A   Clear
11:34 PM 50.2 °F - 49.1 °F 96% 30.01 in 10.0 mi NE 3.5 mph - N/A   Clear
11:54 PM 48.6 °F - 47.8 °F 97% 30.02 in 10.0 mi Calm Calm - N/A   Clear